[[{"header":{"parameterUnit":"m.s-1","parameterCategory":1,"la1":30.2991,"la2":30.254,"lo1":-89.0895,"lo2":-89.0444,"dy":0.0017,"dx":0.0017,"nx":28,"ny":28,"refTime":"2024-04-02T03:00:00:Z","depth":0,"parameterNumber":2,"parameterNumberName":"U-component_of_WINDS"},"data":[0,0,0,0,0,0,0,0,0,0,0,0,0,0,0,0,0,0,0,0,0,0,0,0,0,0,0,0,0,0,0,0,0,0,0,0,0,0,0,0,0,0,0,0,0,0,0,0,0,0,0,0,0,0,0,0,0,0,-1.095,-1.095,0,-1.1007,-1.1008,-1.1008,-1.1072,-1.1073,-1.1074,-1.1075,-1.1131,-1.1132,-1.1132,0,0,0,0,0,0,0,0,0,0,0,0,0,-1.0893,-1.0894,-1.095,-1.0951,-1.0951,-1.1007,-1.1008,-1.1008,-1.1072,-1.1073,-1.1075,-1.1076,-1.1131,-1.1132,-1.1132,0,0,0,0,0,0,0,0,0,0,0,0,0,-1.0931,-1.0894,-1.095,-1.099,-1.0994,-1.1007,-1.1008,-1.1009,-1.1072,-1.1073,-1.1075,-1.1076,-1.1131,-1.1131,-1.1132,-1.1109,0,0,-1.1135,-1.1135,0,0,0,0,0,0,0,0,-1.0929,-1.0933,-1.0983,-1.0987,-1.0992,-1.1034,-1.1008,-1.1042,-1.1072,-1.1042,-1.1075,-1.1077,-1.1097,-1.1101,-1.1109,-1.1112,-1.1114,-1.1135,-1.1136,-1.1136,-1.1136,0,0,0,0,0,0,0,-1.0926,-1.0931,-1.0972,-1.0984,-1.0989,-1.1004,-1.1011,-1.1015,-1.1061,-1.1045,-1.105,-1.1056,-1.11,-1.1108,-1.111,-1.1115,-1.1135,-1.1136,-1.1136,-1.1137,-1.11,-1.1099,0,0,0,0,0,0,-1.0918,-1.0928,-1.0971,-1.0974,-1.0963,-1.1004,-1.1012,-1.1019,-1.1061,-1.1069,-1.1055,-1.1059,-1.1105,-1.1109,-1.1113,-1.1087,-1.1136,-1.1137,-1.1137,-1.1102,-1.11,-1.1098,0,0,0,0,0,0,-1.0916,-1.0921,-1.0968,-1.0952,-1.096,-1.1004,-1.1011,-1.1019,-1.1027,-1.1069,-1.1077,-1.1054,-1.1107,-1.1111,-1.1109,-1.1089,-1.1137,-1.1138,-1.1103,-1.1101,-1.1099,-1.1035,0,0,0,0,0,0,-1.0914,-1.092,-1.0912,-1.0952,-1.096,-1.0964,-1.101,-1.1019,-1.1029,-1.1035,-1.107,-1.1077,-1.1108,-1.1108,-1.111,-1.1092,-1.1139,-1.1105,-1.1102,-1.11,-1.1039,-1.1031,-1.1024,0,0,0,0,0,-1.0912,-1.0892,-1.0911,-1.0916,-1.0952,-1.0963,-1.0968,-1.1005,-1.1027,-1.1019,-1.1045,-1.1076,-1.1092,-1.1107,-1.111,-1.1092,-1.1107,-1.1103,-1.11,-1.1042,-1.1032,-1.1024,0,0,0,0,0,0,-1.0848,-1.0898,-1.092,-1.0912,-1.0933,-1.0974,-1.0965,-1.0993,-1.1008,-1.1012,-1.1057,-1.1064,-1.1056,-1.1074,-1.109,-1.1071,-1.1104,-1.1101,-1.1059,-1.105,-1.1042,-1.1037,-1.114,0,0,0,0,0,-1.0833,-1.0839,-1.0882,-1.0871,-1.088,-1.0921,-1.0927,-1.0954,-1.0977,-1.0986,-1.1012,-1.1033,-1.1042,-1.1047,-1.1058,-1.1043,-1.105,-1.1032,-1.1024,-1.1017,-1.1014,-1.1005,-1.0996,-1.1087,-1.1087,-1.1087,0,0,-1.0802,-1.083,-1.0831,-1.0859,-1.0878,-1.0882,-1.0928,-1.0931,-1.0934,-1.0986,-1.0985,-1.1005,-1.1031,-1.1022,-1.1019,-1.1036,-1.0991,-1.1013,-1.1008,-1.1007,-1.1,-1.0992,-1.0984,-1.1085,-1.1085,-1.1086,0,0,-1.0746,-1.0769,-1.0761,-1.078,-1.0809,-1.0836,-1.0834,-1.0871,-1.0886,-1.0887,-1.0926,-1.093,-1.0946,-1.0962,-1.0972,-1.0923,-1.0951,-1.0925,-1.0884,-1.0875,-1.0868,-1.0862,-1.0842,-1.0835,-1.0922,-1.0922,-1.0922,0,-1.0703,-1.0712,-1.0754,-1.0754,-1.0764,-1.0813,-1.0804,-1.082,-1.0851,-1.0856,-1.0876,-1.0896,-1.0917,-1.0911,-1.0899,-1.0906,-1.0904,-1.092,-1.0866,-1.086,-1.0855,-1.0837,-1.0829,-1.0918,-1.0919,-1.0919,-1.0919,0,-1.0657,-1.0662,-1.0653,-1.0681,-1.0691,-1.0687,-1.0726,-1.0731,-1.0757,-1.0781,-1.078,-1.0807,-1.0823,-1.0825,-1.085,-1.0822,-1.0832,-1.0858,-1.0892,-1.0842,-1.0825,-1.0819,-1.0913,-1.0914,-1.0916,-1.0916,0,0,-1.0561,-1.0613,-1.0609,-1.0622,-1.0657,-1.0662,-1.0659,-1.0676,-1.0678,-1.0698,-1.0696,-1.0708,-1.0733,-1.0744,-1.0772,-1.0764,-1.072,-1.0791,-1.0793,-1.0775,-1.0689,-1.0666,-1.0658,-1.074,-1.0739,-1.0738,-1.0686,0,-1.0511,-1.051,-1.0547,-1.0535,-1.054,-1.0586,-1.0584,-1.0604,-1.0627,-1.0634,-1.0659,-1.0666,-1.0699,-1.0706,-1.0701,-1.0727,-1.0703,-1.0732,-1.0737,-1.0736,-1.0726,-1.0649,-1.0626,-1.0575,-1.068,-1.0679,-1.0678,0,-1.0451,-1.0467,-1.0456,-1.0491,-1.0494,-1.0491,-1.0509,-1.0516,-1.054,-1.0557,-1.057,-1.0601,-1.06,-1.0634,-1.0632,-1.065,-1.0655,-1.0667,-1.0666,-1.0666,-1.0702,-1.0645,-1.056,-1.0551,-1.0668,-1.0669,-1.067,0,-1.0379,-1.0399,-1.0394,-1.0404,-1.0445,-1.0442,-1.0459,-1.0485,-1.0492,-1.0508,-1.0513,-1.0528,-1.0535,-1.0546,-1.058,-1.0602,-1.0573,-1.061,-1.0586,-1.0584,-1.0575,-1.0575,-1.0487,-1.0582,-1.0583,-1.0583,-1.0583,0,-1.0317,-1.0308,-1.0362,-1.0359,-1.0349,-1.0392,-1.0381,-1.0403,-1.0425,-1.0426,-1.0468,-1.0467,-1.0514,-1.0519,-1.0546,-1.0538,-1.0542,-1.0555,-1.0561,-1.0549,-1.0547,-1.0551,-1.0554,-1.0581,-1.0581,-1.0582,-1.0582,0,-1.0235,-1.0271,-1.0268,-1.0308,-1.0318,-1.0308,-1.0342,-1.034,-1.0366,-1.0366,-1.0369,-1.0409,-1.0416,-1.0452,-1.0468,-1.0487,-1.0469,-1.0484,-1.046,-1.0465,-1.0437,-1.0438,-1.0347,-1.0336,-1.044,-1.0439,-1.0438,0,-1.0191,-1.0185,-1.0224,-1.0228,-1.0243,-1.0249,-1.0256,-1.0298,-1.0304,-1.0331,-1.0325,-1.0337,-1.0347,-1.0357,-1.0387,-1.0399,-1.0413,-1.0381,-1.0415,-1.0403,-1.041,-1.0408,-1.0407,-1.0372,-1.0371,-1.037,-1.0369,0,-1.011,-1.0128,-1.0138,-1.0154,-1.0162,-1.0176,-1.0193,-1.0194,-1.024,-1.0245,-1.0253,-1.0262,-1.0278,-1.0287,-1.0305,-1.0321,-1.0351,-1.0358,-1.0352,-1.0339,-1.0324,-1.0329,-1.0437,-1.0359,-1.036,-1.0361,-1.0361,-1.0362,-1.0044,-1.004,-1.0066,-1.0075,-1.0093,-1.0107,-1.0107,-1.0133,-1.0141,-1.0157,-1.0182,-1.0186,-1.021,-1.0236,-1.025,-1.0254,-1.0271,-1.0264,-1.0261,-1.0258,-1.0251,-1.0326,-1.0257,-1.0258,-1.0258,-1.0258,-1.0258,0,-0.9962,-0.9981,-0.999,-1.0012,-1.0019,-1.0049,-1.0069,-1.0072,-1.0076,-1.0096,-1.0106,-1.0114,-1.0124,-1.0155,-1.0167,-1.0164,-1.0178,-1.0165,-1.0164,-1.0167,-1.0236,-1.0238,-1.0153,-1.0153,-1.0153,-1.0153,-1.0153,-1.0153,-0.992,-0.9914,-0.9935,-0.9938,-0.9958,-0.9963,-0.9971,-0.9984,-1.0,-1.0008,-1.0016,-1.0037,-1.0061,-1.0075,-1.0085,-1.0094,-1.0095,-1.0077,-1.009,-1.0153,-1.0163,-1.0172,-1.0174,-1.0078,-1.0077,-1.0021,-1.002,-1.002]},{"header":{"parameterUnit":"m.s-1","parameterCategory":1,"la1":30.2991,"la2":30.254,"lo1":-89.0895,"lo2":-89.0444,"dy":0.0017,"dx":0.0017,"nx":28,"ny":28,"refTime":"2024-04-02T03:00:00:Z","depth":0,"parameterNumber":3,"parameterNumberName":"V-component_of_WINDS"},"data":[0,0,0,0,0,0,0,0,0,0,0,0,0,0,0,0,0,0,0,0,0,0,0,0,0,0,0,0,0,0,0,0,0,0,0,0,0,0,0,0,0,0,0,0,0,0,0,0,0,0,0,0,0,0,0,0,0,0,5.9328,5.933,0,5.9571,5.9574,5.9577,5.9634,5.9633,5.9631,5.9629,5.9877,5.9885,5.9893,0,0,0,0,0,0,0,0,0,0,0,0,0,5.8911,5.8918,5.9327,5.933,5.9334,5.9571,5.9574,5.9578,5.9635,5.9633,5.9631,5.9629,5.9874,5.9884,5.9894,0,0,0,0,0,0,0,0,0,0,0,0,0,5.9117,5.8921,5.9327,5.9391,5.9399,5.957,5.9574,5.9578,5.9635,5.9633,5.963,5.9628,5.9871,5.9883,5.9895,6.0019,0,0,5.9932,5.9937,0,0,0,0,0,0,0,0,5.9105,5.9132,5.9378,5.9387,5.9396,5.957,5.9518,5.9726,5.9636,5.9545,5.9629,5.9627,5.9777,5.9796,5.9848,6.0031,6.0042,5.9933,5.9941,5.9946,5.9949,0,0,0,0,0,0,0,5.9091,5.9122,5.9424,5.9382,5.9393,5.9407,5.9433,5.9558,5.9672,5.9553,5.9558,5.9586,5.9781,5.9836,5.9854,6.0045,5.9933,5.9944,5.9951,5.9956,6.0347,6.0349,0,0,0,0,0,0,5.9066,5.911,5.9416,5.9431,5.9242,5.9416,5.9446,5.9517,5.9671,5.9692,5.9588,5.9588,5.9816,5.9839,5.9863,6.0022,5.9946,5.9957,5.9964,6.0343,6.0347,6.0351,0,0,0,0,0,0,5.9056,5.9092,5.9406,5.9272,5.9313,5.9426,5.9505,5.9523,5.9577,5.9697,5.9717,5.9623,5.9815,5.9845,5.9981,6.0031,5.9963,5.9974,6.034,6.0345,6.0349,6.0338,0,0,0,0,0,0,5.9044,5.9089,5.9137,5.9273,5.932,5.9521,5.9508,5.9529,5.9599,5.9601,5.9735,5.9755,5.9815,5.9963,5.9993,6.0046,5.9983,6.0336,6.0342,6.0347,6.0334,6.0341,6.0348,0,0,0,0,0,5.9029,5.9123,5.9139,5.9176,5.9383,5.9523,5.955,5.9619,5.9602,5.9652,5.9729,5.9751,6.002,5.9976,6.0011,6.0068,6.0333,6.034,6.0347,6.0331,6.034,6.0347,0,0,0,0,0,0,5.899,5.9142,5.9162,5.9302,5.94,5.9533,5.9598,5.9625,5.9729,5.9726,5.9806,5.9836,5.9967,6.0031,5.9979,6.0198,6.0176,6.019,6.0152,6.0162,6.0168,6.0151,5.9993,0,0,0,0,0,5.8997,5.9099,5.9226,5.9338,5.9386,5.9483,5.9547,5.9592,5.9695,5.9736,5.9823,5.9923,6.003,6.0099,6.0204,6.0343,6.0375,6.04,6.0406,6.0411,6.0423,6.0505,6.0518,6.0373,6.0373,6.0373,0,0,5.9014,5.911,5.9169,5.9333,5.9413,5.9518,5.9518,5.9627,5.9705,5.9753,5.9887,5.9954,6.007,6.0209,6.0274,6.0267,6.047,6.042,6.0423,6.0433,6.0513,6.0527,6.0539,6.0378,6.0377,6.0376,0,0,5.9099,5.918,5.9284,5.9366,5.9488,5.9553,5.9577,5.9707,5.9754,5.989,5.9929,6.0023,6.0205,6.0287,6.0353,6.047,6.0495,6.0502,6.0538,6.0616,6.0627,6.0638,6.0683,6.0697,6.0513,6.0513,6.0513,0,5.9104,5.9263,5.9334,5.9443,5.9515,5.9563,5.967,5.9745,5.9895,5.9943,5.9932,6.0164,6.0245,6.0406,6.0435,6.0485,6.0517,6.0488,6.062,6.0631,6.0642,6.0686,6.0702,6.0513,6.0513,6.0513,6.0513,0,5.9265,5.9375,5.9444,5.9589,5.9669,5.9775,5.9863,5.9934,5.9972,6.0037,6.0176,6.0276,6.0403,6.0444,6.0481,6.061,6.0602,6.0604,6.0584,6.0655,6.0698,6.0715,6.0514,6.0514,6.0514,6.0514,0,0,5.9332,5.9517,5.9542,5.961,5.9749,5.9835,5.9944,6.007,6.0131,6.0232,6.0328,6.0482,6.0486,6.056,6.0606,6.0675,6.0765,6.067,6.0674,6.0686,6.0917,6.0916,6.0934,6.0781,6.0785,6.0788,6.0908,0,5.9436,5.9635,5.9702,5.9867,5.997,6.0018,6.0114,6.021,6.0274,6.0371,6.0441,6.0551,6.0546,6.0592,6.0662,6.0739,6.0813,6.0731,6.0872,6.0876,6.0844,6.0956,6.0955,6.1065,6.0925,6.0928,6.093,0,5.9584,5.9691,5.9865,5.9994,6.004,6.0125,6.0247,6.0339,6.0449,6.0491,6.0575,6.0617,6.0734,6.0705,6.0868,6.0811,6.0872,6.0919,6.0925,6.0943,6.0909,6.0979,6.1101,6.1118,6.0956,6.0954,6.0952,0,5.962,5.9806,5.9935,5.9991,6.0144,6.0203,6.0269,6.0377,6.0449,6.0555,6.0604,6.0721,6.0786,6.0876,6.0949,6.0921,6.1107,6.1083,6.1147,6.1145,6.1185,6.1182,6.1321,6.122,6.122,6.1219,6.1219,0,5.973,5.9836,5.9954,6.0034,6.0154,6.0231,6.0348,6.0416,6.0512,6.0607,6.0654,6.0742,6.0832,6.0932,6.0989,6.1117,6.1145,6.1184,6.1198,6.1181,6.1177,6.1224,6.122,6.1224,6.1223,6.1222,6.1221,0,5.9791,5.9873,6.0019,6.0152,6.0188,6.0271,6.0385,6.0465,6.0531,6.0651,6.0683,6.0787,6.0907,6.0989,6.1141,6.118,6.132,6.1331,6.1283,6.1291,6.1351,6.1345,6.1527,6.1556,6.1433,6.1434,6.1435,0,5.9857,5.994,6.0083,6.015,6.0217,6.0325,6.0399,6.0478,6.0553,6.0686,6.075,6.0874,6.0977,6.1166,6.1256,6.1374,6.139,6.1446,6.1408,6.1389,6.1395,6.139,6.14,6.1452,6.1453,6.1454,6.1455,0,5.9968,6.0005,6.0111,6.0232,6.032,6.0418,6.0517,6.0569,6.0665,6.0748,6.0872,6.0952,6.1109,6.1232,6.1359,6.1427,6.1458,6.1465,6.1487,6.1472,6.1442,6.1462,6.1302,6.1462,6.1461,6.146,6.146,6.146,6.0036,6.0113,6.0226,6.0343,6.0426,6.0518,6.06,6.0678,6.0783,6.0918,6.0957,6.1087,6.1197,6.1371,6.1441,6.1544,6.1539,6.1569,6.1577,6.1584,6.1586,6.1423,6.1567,6.1566,6.1566,6.1566,6.1566,0,6.0151,6.0227,6.0334,6.0472,6.0564,6.0585,6.0696,6.0772,6.0886,6.0986,6.1087,6.123,6.135,6.1449,6.1573,6.1636,6.1654,6.1666,6.1664,6.168,6.1582,6.1552,6.165,6.165,6.165,6.165,6.165,6.165,6.0223,6.0355,6.0406,6.0581,6.0655,6.0784,6.0846,6.0931,6.1012,6.1171,6.1271,6.1335,6.1435,6.1567,6.1678,6.1704,6.1749,6.1759,6.1788,6.1695,6.1686,6.1677,6.165,6.1767,6.1767,6.1878,6.1879,6.188]}]]